EW3994 Weather Reports


Display with metric or nautical units.
time (UTC)temp
F
wind
direction
speed
MPH
gust
MPH
rain 1hr
in
rain 24hr
in
rain mn
in
humidity
%
barometer
mb
20260502130305 57 353 6.0 11.0 0.00 0.19 0.19 66 1010.6
20260502123605 58 358 6.0 12.0 0.00 0.19 0.19 66 1010.6
20260502122704 58 359 6.0 12.0 0.00 0.19 0.19 67 1010.7
20260502121805 58 1 6.0 11.0 0.00 0.19 0.19 67 1010.6
20260502120905 58 358 6.0 11.0 0.00 0.19 0.19 66 1010.6
20260502114205 58 356 6.0 11.0 0.00 0.19 0.19 66 1010.4
20260502113305 58 355 6.0 12.0 0.00 0.19 0.19 66 1010.4
20260502112405 58 355 5.0 12.0 0.00 0.19 0.19 66 1010.3
20260502110605 59 10 6.0 11.0 0.00 0.19 0.19 66 1010.2
20260502105705 59 21 6.0 12.0 0.00 0.19 0.19 66 1009.9
20260502104805 59 17 6.0 12.0 0.00 0.19 0.19 66 1010.0
20260502103905 59 19 6.0 13.0 0.00 0.19 0.19 66 1009.8
20260502103004 58 19 5.0 10.0 0.00 0.19 0.19 66 1009.9
20260502102104 58 19 6.0 11.0 0.00 0.19 0.19 66 1009.8
20260502101204 58 25 5.0 10.0 0.00 0.19 0.19 66 1009.7
20260502100304 58 22 5.0 9.0 0.00 0.19 0.19 66 1009.7
20260502090904 59 22 5.0 9.0 0.00 0.19 0.19 66 1009.4
20260502071204 60 13 4.0 9.0 0.05 0.19 0.19 66 1009.0
20260502070304 60 15 5.0 10.0 0.06 0.19 0.19 66 1009.3
20260502065404 60 13 5.0 11.0 0.05 0.18 0.18 66 1009.1
20260502064505 60 7 5.0 9.0 0.04 0.17 0.17 66 1009.2
20260502061804 60 351 4.0 8.0 0.03 0.14 0.14 65 1008.8
20260502060905 60 2 4.0 9.0 0.03 0.14 0.14 65 1008.7
20260502060004 60 341 4.0 9.0 0.03 0.13 0.13 65 1008.7
20260502055104 61 326 4.0 9.0 0.03 0.13 0.13 65 1009.0
20260502054204 61 317 6.0 13.0 0.04 0.13 0.13 65 1008.8
20260502053304 62 316 7.0 13.0 0.05 0.12 0.12 65 1009.0
20260502052404 62 328 4.0 10.0 0.05 0.11 0.11 65 1008.7
20260502051504 62 329 3.0 8.0 0.08 0.11 0.11 66 1008.4
20260502045704 62 308 2.0 7.0 0.07 0.10 0.10 65 1008.9
20260502044804 62 294 3.0 5.0 0.07 0.09 0.09 65 1008.3
20260502043905 62 304 4.0 9.0 0.06 0.09 0.09 65 1008.4
20260502043005 62 305 5.0 10.0 0.05 0.07 0.07 65 1008.9
20260502042104 63 317 3.0 10.0 0.03 0.06 0.06 65 1008.9
20260502040304 63 336 2.0 6.0 0.02 0.03 0.03 65 1008.6
20260502035403 63 322 3.0 9.0 0.02 0.03 0.03 65 1008.7
20260502034504 63 314 4.0 9.0 0.01 0.02 0.02 64 1009.0
20260502033603 63 308 4.0 9.0 0.01 0.02 0.02 63 1009.0
20260502030904 65 295 8.0 14.0 0.00 0.02 0.02 57 1008.9
20260502030003 66 290 8.0 15.0 0.00 0.02 0.02 54 1008.9
20260502025104 67 292 8.0 13.0 0.00 0.02 0.02 54 1008.5
20260502024204 67 287 9.0 14.0 0.00 0.02 0.02 54 1008.4
20260502022403 67 283 10.0 15.0 0.00 0.02 0.02 55 1008.6
20260502021504 67 287 9.0 15.0 0.00 0.02 0.02 56 1008.7
20260502020603 67 284 10.0 19.0 0.00 0.02 0.02 55 1008.8
20260502015704 69 291 10.0 20.0 0.00 0.02 0.02 52 1008.9
20260502014803 70 329 8.0 19.0 0.00 0.02 0.02 47 1009.0
20260502013903 70 4 6.0 13.0 0.00 0.02 0.02 43 1008.4
20260502013004 70 4 7.0 18.0 0.00 0.02 0.02 43 1008.6
20260502012103 70 6 8.0 16.0 0.00 0.02 0.02 43 1008.7
20260502011203 70 3 9.0 16.0 0.00 0.02 0.02 44 1008.7
20260502010302 70 6 11.0 22.0 0.00 0.02 0.02 43 1008.8
20260502005403 70 15 8.0 22.0 0.00 0.02 0.02 43 1008.9
20260502003603 69 8 7.0 16.0 0.00 0.02 0.02 45 1008.9
20260502002703 68 2 6.0 16.0 0.00 0.02 0.02 47 1008.9
20260502001803 67 12 7.0 13.0 0.01 0.02 0.02 49 1008.9
20260502000003 66 37 7.0 14.0 0.02 0.02 0.02 52 1009.1
20260501235103 67 56 4.0 10.0 0.02 0.02 0.02 51 1009.2
20260501234203 68 44 7.0 13.0 0.02 0.02 0.02 50 1009.2
20260501233303 69 33 9.0 17.0 0.02 0.02 0.02 48 1009.2
20260501231502 71 348 14.0 24.0 0.01 0.01 0.01 42 1009.6
20260501225703 74 358 13.0 27.0 0.00 0.00 0.00 32 1008.9
20260501224803 74 355 9.0 27.0 0.00 0.00 0.00 29 1008.9
20260501223903 74 5 9.0 17.0 0.00 0.00 0.00 29 1008.7
20260501223003 74 4 8.0 16.0 0.00 0.00 0.00 29 1008.6
20260501222103 74 4 12.0 22.0 0.00 0.00 0.00 28 1008.6
20260501221203 74 3 10.0 27.0 0.00 0.00 0.00 28 1008.5
20260501220303 74 9 12.0 23.0 0.00 0.00 0.00 28 1008.2
20260501214503 74 22 12.0 23.0 0.00 0.00 0.00 28 1007.6
20260501213602 74 29 13.0 22.0 0.00 0.00 0.00 27 1007.4
20260501212703 74 37 15.0 27.0 0.00 0.00 0.00 27 1007.3
20260501211803 74 35 13.0 21.0 0.00 0.00 0.00 27 1007.5
20260501210003 74 32 13.0 24.0 0.00 0.00 0.00 27 1007.7
20260501205102 74 29 13.0 22.0 0.00 0.00 0.00 27 1007.7
20260501204203 74 33 13.0 23.0 0.00 0.00 0.00 27 1007.6
20260501202402 74 37 12.0 22.0 0.00 0.00 0.00 27 1007.9
20260501200603 74 39 12.0 22.0 0.00 0.00 0.00 26 1008.1
20260501194802 74 35 12.0 23.0 0.00 0.00 0.00 26 1008.2
20260501193902 74 41 12.0 21.0 0.00 0.00 0.00 26 1008.1
20260501193003 74 40 12.0 22.0 0.00 0.00 0.00 26 1008.2
20260501191202 74 41 12.0 22.0 0.00 0.00 0.00 25 1008.2
20260501190302 74 42 12.0 20.0 0.00 0.00 0.00 25 1008.3
20260501185402 74 38 14.0 22.0 0.00 0.00 0.00 25 1008.3
20260501184502 74 39 12.0 21.0 0.00 0.00 0.00 26 1008.3
20260501183602 74 42 11.0 20.0 0.00 0.00 0.00 25 1008.4
20260501182701 74 41 12.0 22.0 0.00 0.00 0.00 25 1008.5
20260501181802 74 37 11.0 20.0 0.00 0.00 0.00 26 1008.5
20260501180902 75 37 10.0 21.0 0.00 0.00 0.00 25 1008.7
20260501180002 75 37 11.0 20.0 0.00 0.00 0.00 25 1008.8
20260501175102 75 37 12.0 22.0 0.00 0.00 0.00 25 1008.9
20260501174202 75 39 13.0 23.0 0.00 0.00 0.00 25 1009.0
20260501173302 75 37 12.0 22.0 0.00 0.00 0.00 25 1009.0
20260501172402 75 36 13.0 23.0 0.00 0.00 0.00 24 1009.1
20260501171502 75 33 14.0 22.0 0.00 0.00 0.00 24 1009.2
20260501170603 76 39 14.0 23.0 0.00 0.00 0.00 24 1009.2
20260501164802 76 42 14.0 25.0 0.00 0.00 0.00 24 1009.6
20260501163902 76 37 13.0 23.0 0.00 0.00 0.00 24 1009.7
20260501162102 76 38 13.0 24.0 0.00 0.00 0.00 24 1009.9
20260501161202 76 42 13.0 25.0 0.00 0.00 0.00 24 1010.0
20260501160302 76 38 13.0 25.0 0.00 0.00 0.00 24 1010.2
20260501155402 76 38 12.0 20.0 0.00 0.00 0.00 24 1010.3
20260501154502 76 43 13.0 24.0 0.00 0.00 0.00 24 1010.4
20260501153603 76 44 13.0 22.0 0.00 0.00 0.00 24 1010.4
20260501152702 76 37 12.0 22.0 0.00 0.00 0.00 24 1010.5
20260501151802 76 40 12.0 22.0 0.00 0.00 0.00 24 1010.6
20260501150902 76 39 11.0 22.0 0.00 0.00 0.00 23 1010.5
20260501144201 76 36 14.0 22.0 0.00 0.00 0.00 21 1010.7
20260501141502 76 39 10.0 21.0 0.00 0.00 0.00 21 1011.0